Weather History for Cheraw, SC

Change the Weather History Date:

Sunday, November 10, 2013

  Actual Average (KFLO) Record (KFLO)
Temperature  
Mean Temperature 52 °F 57 °F  
Max Temperature 69 °F 69 °F 87 °F (1979)
Min Temperature 35 °F 45 °F 28 °F (1967)
Degree Days  
Heating Degree Days 13 9  
Month to date heating degree days 76  
Since 1 July heating degree days 193  
Cooling Degree Days 0 1  
Month to date cooling degree days 10  
Year to date cooling degree days 2052  
Growing Degree Days 2 (Base 50)    
Moisture  
Dew Point 37 °F    
Average Humidity 62    
Maximum Humidity 100    
Minimum Humidity 25    
Precipitation  
Precipitation 0.00 in 0.09 in 0.79 in (2009)
Month to date precipitation 0.88  
Year to date precipitation 38.11  
Sea Level Pressure  
Sea Level Pressure 30.19 in    
Wind  
Wind Speed - (North)    
Max Wind Speed -    
Max Gust Speed -    
Visibility 9 miles    
Events      
T = Trace of Precipitation, MM = Missing Value Source: NWS Daily Summary

Daily Weather History Graph

Daily Weather History Graph

Search for Another Location

Airport:

Trip Planner

Search our weather history database for the weather conditions in past years. The results will help you decide how hot, cold, wet, or windy it might be!

Date:

Astronomy

Nov. 10, 2013 Rise Set
Actual Time 6:49 AM EST 5:18 PM EST
Civil Twilight 6:22 AM EST 5:44 PM EST
Nautical Twilight 5:52 AM EST 6:14 PM EST
Astronomical Twilight 5:22 AM EST 6:44 PM EST
Moon 1:06 PM EST (11/10) No Moon Set
Length of Visible Light 11h 22m
Length of Day
10h 28m
First Quarter, 55% of the Moon is Illuminated
Nov 10
First Quarter
Nov 17
Full
Nov 25
Last Quarter
Dec 2
New
Dec 9
First Quarter

Hourly Weather History & Observations

Time (EST) Temp. Dew Point Humidity Pressure Visibility Wind Dir Wind Speed Gust Speed Precip Events Conditions
12:15 AM 48.2 °F 35.6 °F 62% 30.23 in 10.0 mi North - - N/A   Clear
12:35 AM 46.4 °F 35.6 °F 66% 30.22 in 10.0 mi North - - N/A   Clear
12:55 AM 46.4 °F 35.6 °F 66% 30.22 in 10.0 mi North - - N/A   Clear
1:15 AM 44.6 °F 35.6 °F 71% 30.21 in 10.0 mi North - - N/A   Clear
1:35 AM 44.6 °F 35.6 °F 71% 30.21 in 10.0 mi North - - N/A   Clear
1:55 AM 41.0 °F 37.4 °F 87% 30.21 in 10.0 mi North - - N/A   Clear
2:15 AM 41.0 °F 37.4 °F 87% 30.21 in 10.0 mi North - - N/A   Clear
2:35 AM 41.0 °F 37.4 °F 87% 30.21 in 10.0 mi North - - N/A   Clear
2:55 AM 39.2 °F 37.4 °F 93% 30.21 in 10.0 mi North - - N/A   Clear
3:15 AM 39.2 °F 37.4 °F 93% 30.21 in 10.0 mi North - - N/A   Clear
3:35 AM 39.2 °F 37.4 °F 93% 30.19 in 10.0 mi North - - N/A   Clear
3:55 AM 39.2 °F 37.4 °F 93% 30.19 in 10.0 mi North - - N/A   Clear
4:15 AM 39.2 °F 37.4 °F 93% 30.19 in 10.0 mi North - - N/A   Clear
4:35 AM 37.4 °F 35.6 °F 93% 30.20 in 10.0 mi North - - N/A   Clear
4:55 AM 37.4 °F 37.4 °F 100% 30.20 in 10.0 mi North - - N/A   Clear
5:15 AM 37.4 °F 35.6 °F 93% 30.20 in 9.0 mi North - - N/A   Clear
5:35 AM 37.4 °F 37.4 °F 100% 30.21 in 10.0 mi North - - N/A   Clear
5:55 AM 37.4 °F 37.4 °F 100% 30.21 in 10.0 mi North - - N/A   Clear
6:15 AM 39.2 °F 37.4 °F 93% 30.21 in 9.0 mi North - - N/A   Clear
6:35 AM 37.4 °F 35.6 °F 93% 30.21 in 10.0 mi North - - N/A   Clear
6:55 AM 35.6 °F 35.6 °F 100% 30.21 in 7.0 mi North - - N/A   Clear
7:15 AM 37.4 °F 37.4 °F 100% 30.22 in 7.0 mi North - - N/A   Clear
7:35 AM 39.2 °F 37.4 °F 93% 30.22 in 7.0 mi North - - N/A   Clear
7:55 AM 39.2 °F 39.2 °F 100% 30.24 in 7.0 mi North - - N/A   Clear
8:15 AM 42.8 °F 39.2 °F 87% 30.25 in 8.0 mi North - - N/A   Clear
8:35 AM 46.4 °F 39.2 °F 76% 30.24 in 7.0 mi North - - N/A   Clear
8:55 AM 48.2 °F 39.2 °F 71% 30.24 in 9.0 mi North - - N/A   Clear
9:15 AM 50.0 °F 37.4 °F 62% 30.23 in 8.0 mi North - - N/A   Clear
9:35 AM 53.6 °F 37.4 °F 54% 30.23 in 8.0 mi North - - N/A   Scattered Clouds
9:55 AM 55.4 °F 37.4 °F 51% 30.23 in 10.0 mi North - - N/A   Mostly Cloudy
10:15 AM 55.4 °F 37.4 °F 51% 30.23 in 10.0 mi North - - N/A   Mostly Cloudy
10:35 AM 57.2 °F 37.4 °F 48% 30.22 in 10.0 mi North - - N/A   Scattered Clouds
10:55 AM 59.0 °F 35.6 °F 42% 30.22 in 8.0 mi North - - N/A   Scattered Clouds
11:15 AM 59.0 °F 37.4 °F 45% 30.22 in 8.0 mi North - - N/A   Mostly Cloudy
11:35 AM 62.6 °F 35.6 °F 37% 30.21 in 8.0 mi North - - N/A   Mostly Cloudy
11:55 AM 64.4 °F 35.6 °F 34% 30.20 in 8.0 mi North - - N/A   Scattered Clouds
12:15 PM 64.4 °F 35.6 °F 34% 30.19 in 8.0 mi North - - N/A   Scattered Clouds
12:35 PM 66.2 °F 35.6 °F 32% 30.17 in 7.0 mi North - - N/A   Partly Cloudy
12:55 PM 66.2 °F 32.0 °F 28% 30.16 in 8.0 mi North - - N/A   Clear
1:15 PM 66.2 °F 33.8 °F 30% 30.16 in 10.0 mi North - - N/A   Clear
1:35 PM 68.0 °F 32.0 °F 26% 30.14 in 10.0 mi North - - N/A   Clear
1:55 PM 68.0 °F 32.0 °F 26% 30.13 in 10.0 mi North - - N/A   Clear
2:15 PM 68.0 °F 32.0 °F 26% 30.13 in 10.0 mi North - - N/A   Clear
2:35 PM 69.8 °F 33.8 °F 27% 30.12 in 10.0 mi North - - N/A   Clear
2:55 PM 69.8 °F 32.0 °F 25% 30.12 in 10.0 mi North - - N/A   Clear
3:15 PM 69.8 °F 32.0 °F 25% 30.11 in 10.0 mi North - - N/A   Clear
3:35 PM 69.8 °F 32.0 °F 25% 30.12 in 10.0 mi North - - N/A   Clear
3:55 PM 69.8 °F 32.0 °F 25% 30.12 in 10.0 mi North - - N/A   Clear
4:15 PM 69.8 °F 32.0 °F 25% 30.12 in 10.0 mi North - - N/A   Clear
4:35 PM 68.0 °F 35.6 °F 30% 30.12 in 10.0 mi North - - N/A   Clear
4:55 PM 66.2 °F 37.4 °F 35% 30.12 in 10.0 mi North - - N/A   Clear
5:15 PM 62.6 °F 37.4 °F 39% 30.13 in 10.0 mi North - - N/A   Clear
5:35 PM 62.6 °F 37.4 °F 39% 30.13 in 10.0 mi North - - N/A   Clear
5:55 PM 60.8 °F 37.4 °F 42% 30.13 in 10.0 mi North - - N/A   Clear
6:15 PM 59.0 °F 39.2 °F 48% 30.14 in 10.0 mi North - - N/A   Clear
6:35 PM 57.2 °F 39.2 °F 51% 30.15 in 10.0 mi North - - N/A   Clear
6:55 PM 57.2 °F 39.2 °F 51% 30.15 in 10.0 mi North - - N/A   Clear
7:15 PM 57.2 °F 39.2 °F 51% 30.15 in 10.0 mi North - - N/A   Clear
7:35 PM 55.4 °F 39.2 °F 54% 30.16 in 10.0 mi North - - N/A   Clear
7:55 PM 55.4 °F 39.2 °F 54% 30.16 in 10.0 mi North - - N/A   Clear
8:15 PM 53.6 °F 39.2 °F 58% 30.17 in 10.0 mi North - - N/A   Clear
8:35 PM 53.6 °F 39.2 °F 58% 30.17 in 10.0 mi North - - N/A   Clear
8:55 PM 53.6 °F 37.4 °F 54% 30.18 in 10.0 mi North - - N/A   Clear
9:15 PM 50.0 °F 37.4 °F 62% 30.18 in 10.0 mi North - - N/A   Clear
9:35 PM 50.0 °F 37.4 °F 62% 30.18 in 10.0 mi North - - N/A   Clear
9:55 PM 48.2 °F 39.2 °F 71% 30.18 in 10.0 mi North - - N/A   Clear
10:15 PM 46.4 °F 39.2 °F 76% 30.19 in 10.0 mi North - - N/A   Clear
10:35 PM 44.6 °F 39.2 °F 81% 30.20 in 10.0 mi North - - N/A   Clear
10:55 PM 44.6 °F 41.0 °F 87% 30.20 in 10.0 mi North - - N/A   Clear
11:15 PM 42.8 °F 39.2 °F 87% 30.20 in 9.0 mi North - - N/A   Clear
11:35 PM 44.6 °F 39.2 °F 81% 30.21 in 10.0 mi North - - N/A   Clear
11:55 PM 44.6 °F 39.2 °F 81% 30.22 in 10.0 mi North - - N/A   Clear